This is the latest recevied weather packets stored in our database for station/object K0SNA. If no packets are shown the sender has not sent any weather packets the latest 10 day(s).
| Time | Temp. | Humidity | Pressure | Rain* | Wind** | Luminosity | Snow |
|---|---|---|---|---|---|---|---|
| 1777926685 | 15.56° C | 38% | 1001.6 hPa | 0 mm | - | 175 W/m² | - |
| 1777926380 | 16.11° C | 37% | 1001.4 hPa | 0 mm | - | 614 W/m² | - |
| 1777926077 | 15.56° C | 37% | 1001.1 hPa | 0 mm | - | 603 W/m² | - |
| 1777925774 | 16.11° C | 38% | 1001 hPa | 0 mm | - | 615 W/m² | - |
| 1777925472 | 15.56° C | 40% | 1001.2 hPa | 0 mm | - | 567 W/m² | - |
| 1777925169 | 15.56° C | 39% | 1001.2 hPa | 0 mm | - | 524 W/m² | - |
| 1777924865 | 15.56° C | 40% | 1001.2 hPa | 0 mm | - | 541 W/m² | - |
| 1777924561 | 15.56° C | 39% | 1001.1 hPa | 0 mm | - | 573 W/m² | - |
| 1777924257 | 15.56° C | 38% | 1000.9 hPa | 0 mm | - | 514 W/m² | - |
| 1777923954 | 15° C | 40% | 1001 hPa | 0 mm | - | 606 W/m² | - |
| 1777923650 | 15.56° C | 38% | 1001.1 hPa | 0 mm | - | 520 W/m² | - |
| 1777923346 | 15.56° C | 38% | 1001 hPa | 0 mm | - | 629 W/m² | - |
| 1777923045 | 15.56° C | 40% | 1001 hPa | 0 mm | - | 650 W/m² | - |
| 1777922743 | 16.11° C | 39% | 1000.6 hPa | 0 mm | - | 720 W/m² | - |
| 1777922441 | 15.56° C | 38% | 1000.6 hPa | 0 mm | - | 633 W/m² | - |
| 1777922138 | 15.56° C | 41% | 1000.7 hPa | 0 mm | - | 430 W/m² | - |
| 1777921834 | 15.56° C | 40% | 1000.6 hPa | 0 mm | - | 313 W/m² | - |
| 1777921531 | 16.11° C | 38% | 1000.7 hPa | 0 mm | - | 506 W/m² | - |
| 1777921227 | 15.56° C | 40% | 1000.6 hPa | 0 mm | - | 627 W/m² | - |
| 1777920924 | 15.56° C | 38% | 1000.4 hPa | 0 mm | - | 306 W/m² | - |
| 1777920621 | 15.56° C | 38% | 1000.3 hPa | 0 mm | - | 355 W/m² | - |
| 1777920316 | 16.11° C | 37% | 1000.1 hPa | 0 mm | - | 326 W/m² | - |
| 1777920012 | 16.11° C | 37% | 1000.1 hPa | 0 mm | - | 581 W/m² | - |
| 1777919709 | 16.11° C | 36% | 999.9 hPa | 0 mm | - | 571 W/m² | - |
| 1777919408 | 16.11° C | 37% | 1000.1 hPa | 0 mm | - | 491 W/m² | - |
* Rain latest hour (hover to see other rain measurements)
** Current wind speed in m/s (hover to see current wind gust speed)